Вернуться в каталог

STARLINK-33677

АктивенСвязьVLEO
NORAD 63410·PAYLOAD·🇺🇸 United States

Запущен Mar 31, 2025 с Cape Canaveral Space Force Station

Loading…

Ближайшие Пролёты (ближайшие 24 часа)

TLE

СвежийSource: CelesTrak SupGP

Эпоха: Sep 14, 2026, 21:16 UTC

1 63410C 25065M   26257.88659722 -.00041492  00000+0 -15033-2 0  2573
2 63410  43.0025 118.5291 0001273 271.1607 169.0992 15.27588642    19

Отслеживайте STARLINK-33677 в реальном времени с AllMySat

Download on the App Store